{"data":{"norad_id":51857,"epoch":"2026-05-25T00:16:15.824064Z","epoch_age_seconds":74826,"freshness":"FRESH","line1":"1 51857U 22022F   26145.01129426 -.00000689  00000+0 -25167-4 0  9996","line2":"2 51857  53.2129  36.5112 0001880  80.9364 279.1841 15.08890433234546","mean_motion":15.08890433,"eccentricity":0.000188,"inclination_deg":53.2129,"raan_deg":36.5112,"arg_perigee_deg":80.9364,"mean_anomaly_deg":279.1841,"bstar":-2.5167e-5,"rev_number":23454,"period_min":95.434364782668,"perigee_km":538.28870721975,"apogee_km":540.8897722859,"semimajor_km":6917.7262397528,"source":"CELESTRAK","updated_at":"2026-05-25T13:38:16.960319Z"}}